Theta_e
310 312 313 314 314 314 314 315 314 311 317 329 327 325 324 323 320 316 315 314 312 311 310 310 310 310 309 308 308 310 311 312 312 311 309 306 306 305 304 302 300 300 299
308 310 312 314 314 313 313 315 315 312 319 327 325 322 320 316 318 315 314 312 311 310 310 310 310 310 309 308 308 309 310 312 312 310 309 306 305 304 303 303 301 299 298
309 308 311 314 313 314 313 314 316 315 316 325 323 319 313 310 310 310 310 309 310 310 310 310 310 310 309 309 309 308 310 309 311 311 307 304 305 304 303 300 300 299 298
306 307 312 313 313 314 314 315 317 316 320 322 319 318 311 309 309 309 309 309 309 309 310 310 310 310 309 309 309 308 309 310 308 309 306 305 306 303 303 301 299 299 299
305 312 311 313 313 313 314 317 315 315 317 318 321 316 311 310 308 308 308 309 310 310 310 310 310 310 309 309 309 308 308 310 308 307 303 304 305 304 302 301 300 299 300
304 311 311 313 313 313 315 318 312 317 317 316 317 316 312 308 308 308 308 308 308 308 309 309 310 310 308 308 308 308 308 308 307 306 303 303 301 300 301 299 300 300 301
304 309 309 311 313 313 315 318 317 316 315 315 314 314 311 310 308 307 308 308 309 310 309 309 309 308 307 307 307 308 307 308 307 307 302 301 301 300 300 301 297 297 298
306 308 308 312 314 313 314 318 318 315 315 315 315 313 312 310 308 307 308 308 309 310 310 309 309 307 306 306 306 306 306 305 304 302 300 298 298 299 300 299 298 296 296
309 309 308 313 313 314 314 315 317 316 316 315 314 313 311 309 308 307 307 308 309 309 309 309 308 308 306 305 304 304 304 302 300 298 297 296 296 297 297 297 296 295 293
310 310 312 312 312 312 313 315 316 316 315 315 314 313 310 309 308 308 308 309 309 308 308 308 307 307 306 304 302 301 299 297 295 295 295 295 294 293 292 291 291 291 292
312 311 310 310 310 310 310 313 316 315 314 314 312 310 309 309 308 308 309 310 309 309 306 305 304 303 301 300 299 297 295 295 295 296 296 293 292 291 290 290 290 289 289
309 307 307 306 306 307 308 309 313 315 314 313 311 310 309 309 308 308 309 308 306 306 304 301 300 299 298 297 296 294 294 296 294 293 292 291 290 290 290 289 289 289 290
307 306 306 305 305 305 305 306 310 314 312 311 310 309 309 309 309 308 308 308 306 303 300 299 297 296 296 295 295 295 295 294 293 292 291 290 289 289 289 289 289 289 289
307 306 306 304 304 303 303 304 307 313 312 311 310 309 309 308 308 307 307 306 305 303 299 297 295 294 294 296 297 297 295 294 293 291 290 289 289 289 289 289 289 289 288
308 306 305 304 303 302 301 302 305 311 313 311 310 309 308 306 307 303 304 302 298 297 296 295 294 296 299 298 297 297 294 292 290 289 289 289 288 289 289 289 289 288 287
308 307 306 303 302 300 300 300 303 311 313 312 311 309 306 306 304 302 300 298 297 295 294 296 298 297 299 297 297 296 292 289 289 288 286 286 286 286 287 287 287 287 286
308 307 304 303 301 299 299 299 301 309 312 311 309 305 302 301 301 300 298 297 296 295 298 298 299 296 295 294 293 291 289 288 287 286 286 285 286 287 288 288 288 287 287
307 305 303 302 299 298 298 298 300 303 304 304 302 301 300 298 298 302 297 296 296 298 297 295 294 293 292 291 289 288 288 287 287 286 286 286 287 287 287 287 286 286 285
303 303 303 301 297 297 297 297 298 299 298 298 298 298 298 296 296 297 296 295 295 294 293 292 292 291 291 290 288 287 287 287 286 286 286 287 287 287 286 285 285 285 285
303 303 303 300 296 295 296 296 296 296 296 296 296 296 296 295 295 294 294 294 293 291 291 290 291 290 290 289 287 287 287 286 286 285 286 286 286 285 285 284 284 284 284
302 302 301 298 295 295 295 294 294 294 295 295 296 295 295 294 294 293 292 292 291 291 290 290 289 289 288 288 287 287 287 286 286 286 285 285 285 283 284 284 284 284 283
301 302 300 297 296 295 294 293 293 293 293 293 293 293 293 293 293 293 292 291 291 290 289 289 288 288 288 289 289 287 286 286 286 286 285 285 283 282 283 282 283 283 282
300 301 300 299 297 295 294 293 292 292 292 292 291 291 292 292 292 292 291 290 290 289 289 288 288 288 288 288 288 288 287 286 286 285 285 283 282 282 282 282 282 281 281
299 300 300 299 298 297 294 293 293 293 292 291 291 291 291 291 291 291 290 290 289 289 289 288 288 288 288 288 287 286 285 285 285 284 283 282 282 282 282 281 281 281 281
299 299 299 299 298 298 295 293 292 293 292 291 291 291 291 290 290 291 292 291 289 290 289 289 289 288 288 287 286 286 285 285 285 283 282 282 282 281 281 281 281 280 280
298 298 298 299 298 298 296 292 293 294 293 290 290 289 290 290 290 289 288 289 289 289 288 288 288 288 287 287 286 286 286 285 284 282 282 281 281 281 280 280 279 279 279
Wind_Speed
2 8 10 12 16 20 23 21 18 17 17 21 20 17 19 25 29 31 37 32 24 25 25 26 27 26 30 31 32 30 30 28 31 26 25 19 17 17 17 16 14 11 9
3 4 6 10 15 21 23 21 19 17 20 25 23 19 24 24 32 33 32 32 32 25 24 26 27 27 28 29 31 33 30 31 31 19 20 3 6 11 12 12 13 12 11
5 5 4 12 21 23 25 21 23 20 21 24 24 21 23 26 25 32 34 31 33 33 29 27 26 27 29 31 33 35 32 26 23 34 9 3 4 7 10 16 15 13 11
6 5 6 13 20 23 27 26 20 18 22 25 30 32 28 28 26 31 32 35 33 29 30 26 29 28 29 31 34 37 37 35 29 25 9 8 13 3 2 11 15 13 13
6 4 6 14 20 27 27 26 17 16 23 31 34 34 27 25 29 29 34 32 37 37 32 32 32 29 30 33 35 38 36 36 32 24 14 12 12 9 4 3 8 14 12
7 5 12 17 21 27 27 20 12 14 23 31 33 33 35 28 29 28 31 30 29 30 31 31 28 30 34 34 32 33 33 33 29 25 16 17 7 8 5 3 5 11 10
7 6 8 11 17 23 23 18 8 13 21 27 28 31 32 36 37 33 34 32 31 30 35 38 38 35 32 29 29 28 26 28 24 26 17 15 11 14 8 12 7 4 7
5 7 7 11 15 19 19 15 9 14 22 27 27 30 33 35 32 36 30 32 32 29 37 35 33 32 30 27 27 27 24 24 24 20 17 15 15 14 18 10 11 2 3
4 7 10 11 13 16 17 18 8 13 17 19 23 26 30 28 27 30 29 27 28 27 36 37 35 32 31 29 27 27 26 25 24 22 20 19 16 13 11 11 8 6 3
6 7 7 10 13 17 17 17 11 12 16 20 23 27 31 30 29 30 29 30 28 29 33 35 34 32 32 31 30 28 26 26 25 23 21 19 15 14 12 11 9 7 6
7 7 8 14 14 15 17 16 7 12 16 20 22 21 23 25 28 30 29 32 35 32 32 32 33 32 33 32 30 30 30 28 26 21 17 18 14 14 12 9 8 7 5
5 6 7 13 14 14 16 15 13 12 17 20 20 21 24 26 27 30 29 38 35 33 33 33 32 32 31 31 33 33 30 28 24 22 19 17 14 13 11 9 8 7 4
5 6 6 7 12 15 15 16 14 6 12 17 20 22 23 24 24 30 34 36 34 32 30 32 33 32 32 33 32 29 26 23 20 17 15 14 11 12 11 9 8 7 4
4 5 6 6 14 15 14 15 12 6 16 21 21 24 27 27 31 30 30 33 31 29 30 31 34 34 34 32 28 25 23 20 16 13 13 13 11 10 10 8 7 5 4
3 4 7 10 14 15 15 15 11 4 18 21 22 22 27 31 30 35 32 30 32 33 34 36 36 33 29 26 24 21 21 19 18 16 13 12 10 8 7 6 5 3 3
3 2 5 10 13 14 15 15 12 5 18 21 20 25 33 36 34 33 34 35 34 33 34 34 33 30 24 22 22 22 22 21 18 16 13 12 12 10 8 7 6 6 5
3 3 5 8 11 13 14 14 10 7 16 18 26 30 32 36 39 38 37 37 36 36 34 33 30 28 25 21 20 22 23 20 18 16 13 12 11 8 5 3 2 2 1
2 4 5 10 12 13 12 9 4 8 17 23 27 32 31 32 33 38 35 34 37 39 35 32 31 27 22 21 22 23 22 19 16 13 11 11 11 6 3 2 2 2 3
3 4 7 9 10 11 9 6 7 12 17 18 21 24 32 31 30 36 37 38 37 35 34 33 30 27 25 21 22 23 21 18 16 12 11 10 8 5 4 3 3 2 4
3 5 6 8 9 9 7 8 10 14 17 18 23 26 27 31 28 31 34 36 38 34 34 29 29 28 25 20 21 20 20 19 17 12 11 7 4 5 4 3 3 3 4
2 5 8 9 8 7 8 12 13 13 18 23 27 28 29 31 34 31 30 37 34 35 31 30 27 25 23 19 19 17 17 16 14 11 9 6 4 3 4 3 4 4 3
2 4 8 8 8 8 9 12 14 15 20 26 28 29 30 28 33 37 33 34 34 33 28 29 26 23 21 19 16 15 13 11 11 9 7 4 2 2 3 4 4 5 4
2 3 7 7 8 9 9 12 13 18 22 24 26 29 29 28 32 35 33 29 28 27 25 24 23 23 19 17 15 15 12 11 10 7 5 3 2 3 4 5 5 4 5
5 7 10 8 8 11 11 14 15 17 20 23 24 25 28 28 28 28 26 26 24 23 24 23 23 24 20 18 15 14 12 10 10 9 6 6 5 5 5 3 3 4 6
7 9 10 12 12 14 15 15 16 22 22 22 22 23 24 26 25 26 26 25 24 29 30 28 28 28 23 18 15 13 12 10 8 7 5 4 4 3 3 2 3 3 3
10 11 12 14 16 17 18 16 20 24 26 20 19 22 25 24 23 22 18 13 15 17 18 20 20 17 16 17 13 10 10 10 7 6 7 6 3 2 2 2 3 4 4
Wind_Direction
300 11 341 336 332 334 318 318 287 260 228 201 195 195 177 176 171 167 165 162 176 174 177 180 178 178 172 169 168 161 152 145 145 123 113 111 130 143 149 153 151 155 153
334 307 307 325 335 330 325 308 304 261 230 205 195 195 182 167 173 168 172 169 169 177 181 178 184 181 173 171 171 167 155 149 154 140 123 100 114 154 171 180 177 172 166
299 302 342 335 336 331 329 310 304 274 227 195 187 169 164 153 153 161 165 174 171 167 175 179 188 187 182 178 176 173 164 156 157 158 141 134 185 145 181 180 180 180 181
310 1 2 336 337 330 327 313 300 275 207 194 183 176 161 160 167 169 166 169 174 176 183 174 192 189 187 183 182 179 176 168 160 171 190 181 146 159 155 187 188 188 187
359 22 335 337 341 340 328 317 290 246 199 192 191 178 167 172 168 169 170 169 170 170 170 179 187 186 193 190 185 183 182 180 174 176 162 146 152 148 140 165 181 189 184
346 356 344 350 349 343 332 327 284 202 185 187 188 182 174 166 163 168 173 179 180 178 182 187 183 182 192 190 185 184 187 183 185 184 177 167 162 171 154 121 142 178 188
360 349 346 334 347 341 336 329 177 188 189 187 183 178 176 178 173 176 176 175 180 181 178 186 177 180 186 188 187 187 191 191 190 192 187 187 191 179 154 130 131 138 152
1 342 326 333 336 338 340 317 195 186 186 190 194 186 188 185 180 179 184 180 178 178 175 180 177 178 180 185 185 186 185 186 186 182 168 150 138 132 138 144 146 109 125
341 348 325 341 338 339 339 342 231 195 195 204 192 189 191 182 179 182 180 181 177 173 173 179 178 178 176 181 182 178 174 173 168 158 145 136 129 130 130 136 148 125 136
7 340 331 331 344 343 348 349 241 222 209 204 204 195 190 186 181 176 173 173 166 164 179 177 176 171 172 175 173 166 159 154 144 139 135 127 122 118 111 108 110 118 118
18 351 336 340 341 343 347 351 285 208 209 209 200 190 179 174 171 170 166 160 162 172 176 172 168 167 166 164 161 154 148 144 138 136 134 126 129 119 115 112 105 103 142
7 335 331 336 341 337 336 340 342 232 213 201 190 177 176 171 167 168 160 158 166 180 172 168 163 160 157 154 152 147 146 143 138 136 138 133 135 125 114 108 111 111 92
343 341 325 329 334 331 330 333 347 229 191 180 173 166 155 154 151 144 153 159 164 164 162 161 155 151 150 151 148 144 140 137 135 135 146 135 135 123 124 127 129 111 86
340 343 328 330 331 327 330 329 330 228 184 177 163 158 154 145 148 151 156 157 164 160 160 157 151 149 148 145 140 139 136 131 135 146 146 136 128 129 126 136 111 93 78
331 347 344 342 338 334 335 332 330 315 188 177 167 155 145 145 148 150 151 155 155 155 156 151 147 145 143 141 145 140 139 143 149 148 139 132 127 131 131 115 99 72 44
254 275 359 342 340 335 335 333 331 290 194 180 157 154 148 151 156 149 150 153 150 147 145 142 142 142 142 146 144 146 149 154 148 141 133 127 127 117 97 79 70 52 38
322 47 34 355 339 338 340 339 342 157 169 155 144 145 145 147 151 149 149 145 146 146 146 145 144 140 136 142 154 158 153 149 144 141 134 126 122 117 113 118 66 58 328
80 60 24 356 349 350 360 357 31 125 134 139 137 143 144 142 144 153 144 142 143 148 147 142 138 135 140 151 154 151 144 142 138 137 134 124 117 96 90 147 123 35 19
62 84 41 7 1 7 12 37 78 108 104 113 127 138 142 136 141 140 141 140 140 138 138 138 141 142 143 147 150 145 143 138 133 134 131 126 117 92 73 119 108 99 107
61 61 34 22 25 21 36 70 72 92 98 114 123 131 133 134 130 133 138 140 139 132 135 136 146 144 140 146 147 148 145 141 138 133 122 113 105 90 77 88 95 77 7
52 84 56 47 50 42 72 70 78 80 111 120 126 129 132 131 131 126 127 130 129 133 137 139 141 141 141 139 145 148 147 146 139 132 126 114 79 67 74 75 70 52 3
74 96 77 67 75 77 90 81 81 106 113 117 117 118 122 125 127 126 125 127 128 133 136 136 137 139 138 139 141 144 136 137 132 137 139 115 62 84 102 85 54 50 27
195 136 115 99 100 105 101 101 105 117 116 112 114 117 118 119 123 126 127 129 135 136 138 140 140 143 143 135 128 127 125 144 137 139 133 133 146 126 113 49 55 38 34
216 181 163 140 133 137 126 115 120 124 119 114 115 119 119 120 123 128 135 135 138 139 142 144 144 149 146 143 139 131 134 139 143 146 149 142 116 80 72 58 55 47 38
219 196 198 166 163 162 148 139 136 134 123 121 123 123 126 129 129 139 150 157 161 163 159 159 157 156 158 162 155 151 150 150 147 142 136 116 99 123 131 77 38 29 18
241 203 204 187 170 175 166 163 164 153 140 131 132 134 134 135 141 146 142 155 159 165 165 162 160 160 154 155 155 152 146 148 158 154 147 151 151 134 72 31 26 22 357